BAW867 LHBP-EGLL

Flight info

Callsign BAW867
Flight time 2h 29m
Altitude 24000
Route GILEP DCT ZOLKU DCT TEKNO DCT ABETI/N0443F360 DCT RENKA DCT INBED DCT BOMBI DCT ADKUV DCT LENDO DCT SOGRI DCT DENUT/N0447F380 L608 LOGAN
Aircraft A320/M-SDE3FGHIRWY/LB1

Departure

Time 2026-05-04 12:25
Airport Budapest Liszt Ferenc International Airport (LHBP)

Arrival

Time 2026-05-04 14:55
Airport London Heathrow Airport (EGLL)
Time Latitude Longitude Altitude Speed Heading
2026-05-04 12:10 47.43086 19.26001 504 ft 0 kts 43°
2026-05-04 12:17 47.43077 19.25989 504 ft 2 kts 42°
2026-05-04 12:17 47.43066 19.25974 504 ft 2 kts 43°
2026-05-04 12:17 47.43055 19.25959 504 ft 2 kts 42°
2026-05-04 12:17 47.43048 19.25950 504 ft 1 kts 43°
2026-05-04 12:18 47.43035 19.25941 504 ft 2 kts 357°
2026-05-04 12:18 47.43022 19.25947 504 ft 0 kts 319°
2026-05-04 12:18 47.43018 19.25954 504 ft 1 kts 310°
2026-05-04 12:18 47.43016 19.25957 504 ft 0 kts 312°
2026-05-04 12:20 47.43023 19.25947 504 ft 7 kts 313°
2026-05-04 12:20 47.43106 19.25815 504 ft 22 kts 312°
2026-05-04 12:20 47.43210 19.25648 504 ft 21 kts 314°
2026-05-04 12:21 47.43310 19.25487 504 ft 21 kts 311°
2026-05-04 12:21 47.43405 19.25330 504 ft 18 kts 315°
2026-05-04 12:21 47.43503 19.25389 504 ft 17 kts 44°
2026-05-04 12:21 47.43595 19.25510 504 ft 19 kts 41°
2026-05-04 12:22 47.43697 19.25645 503 ft 19 kts 41°
2026-05-04 12:22 47.43793 19.25776 504 ft 18 kts 44°
2026-05-04 12:22 47.43885 19.25907 503 ft 18 kts 42°
2026-05-04 12:22 47.43979 19.26030 504 ft 17 kts 29°
2026-05-04 12:23 47.44072 19.25954 503 ft 16 kts 311°
2026-05-04 12:23 47.44150 19.25829 504 ft 16 kts 312°
2026-05-04 12:23 47.44226 19.25703 504 ft 16 kts 311°
2026-05-04 12:23 47.44306 19.25584 504 ft 16 kts 321°
2026-05-04 12:24 47.44408 19.25559 504 ft 15 kts 10°
2026-05-04 12:24 47.44488 19.25649 504 ft 14 kts 59°
2026-05-04 12:24 47.44507 19.25796 504 ft 16 kts 101°
2026-05-04 12:24 47.44367 19.26038 504 ft 57 kts 132°
2026-05-04 12:25 47.43953 19.26708 504 ft 118 kts 132°
2026-05-04 12:25 47.43283 19.27799 523 ft 165 kts 135°
2026-05-04 12:25 47.42472 19.29073 926 ft 173 kts 136°
2026-05-04 12:25 47.41712 19.30448 1465 ft 178 kts 127°
2026-05-04 12:26 47.41110 19.32057 1957 ft 183 kts 117°
2026-05-04 12:26 47.40533 19.33803 2245 ft 197 kts 120°
2026-05-04 12:26 47.39862 19.35657 2535 ft 212 kts 121°
2026-05-04 12:26 47.39107 19.37677 2758 ft 235 kts 121°
2026-05-04 12:27 47.38144 19.39697 3113 ft 249 kts 142°
2026-05-04 12:27 47.36580 19.40808 3495 ft 259 kts 174°
2026-05-04 12:27 47.34821 19.40505 4155 ft 260 kts 204°
2026-05-04 12:27 47.33416 19.38914 4913 ft 262 kts 233°
2026-05-04 12:28 47.32480 19.36602 5700 ft 264 kts 240°
2026-05-04 12:28 47.31598 19.34250 6442 ft 267 kts 241°
2026-05-04 12:28 47.30700 19.31853 7194 ft 270 kts 240°
2026-05-04 12:28 47.29785 19.29443 7950 ft 273 kts 241°
2026-05-04 12:29 47.28847 19.26996 8698 ft 277 kts 241°
2026-05-04 12:29 47.27907 19.24546 9407 ft 280 kts 241°
2026-05-04 12:29 47.26949 19.22054 10088 ft 283 kts 241°
2026-05-04 12:29 47.25972 19.19516 10591 ft 293 kts 241°
2026-05-04 12:30 47.24937 19.16828 10882 ft 309 kts 241°
2026-05-04 12:30 47.23857 19.14032 11279 ft 320 kts 241°
2026-05-04 12:30 47.22755 19.11186 11895 ft 324 kts 241°
2026-05-04 12:30 47.21643 19.08319 12521 ft 326 kts 241°
2026-05-04 12:31 47.20607 19.05362 13123 ft 327 kts 251°
2026-05-04 12:31 47.20249 19.02042 13722 ft 328 kts 272°
2026-05-04 12:31 47.20739 18.98825 14320 ft 331 kts 292°
2026-05-04 12:31 47.21986 18.95926 14923 ft 335 kts 305°
2026-05-04 12:32 47.23411 18.93266 15486 ft 337 kts 306°
2026-05-04 12:32 47.26344 18.87859 16598 ft 340 kts 306°
2026-05-04 12:32 47.27806 18.85135 17145 ft 341 kts 306°
2026-05-04 12:33 47.29271 18.82393 17679 ft 342 kts 306°
2026-05-04 12:33 47.30732 18.79648 18205 ft 343 kts 305°
2026-05-04 12:33 47.32211 18.76862 18729 ft 344 kts 305°
2026-05-04 12:33 47.33667 18.74115 19217 ft 345 kts 306°
2026-05-04 12:34 47.35135 18.71341 19687 ft 346 kts 306°
2026-05-04 12:34 47.36630 18.68512 20175 ft 347 kts 306°
2026-05-04 12:34 47.38099 18.65732 20647 ft 348 kts 306°
2026-05-04 12:34 47.39585 18.62905 21113 ft 349 kts 304°
2026-05-04 12:35 47.40902 18.59927 21552 ft 348 kts 298°
2026-05-04 12:35 47.41957 18.56701 21989 ft 348 kts 291°
2026-05-04 12:35 47.42743 18.53352 22319 ft 352 kts 288°
2026-05-04 12:35 47.43463 18.49870 22610 ft 356 kts 287°
2026-05-04 12:36 47.44176 18.46352 22988 ft 358 kts 287°
2026-05-04 12:36 47.44886 18.42846 23380 ft 359 kts 288°
2026-05-04 12:36 47.45606 18.39294 23762 ft 360 kts 288°
2026-05-04 12:36 47.46319 18.35781 24125 ft 361 kts 288°
2026-05-04 12:37 47.47035 18.32243 24495 ft 362 kts 287°
2026-05-04 12:37 47.47757 18.28670 24853 ft 364 kts 288°
2026-05-04 12:37 47.48452 18.25035 25200 ft 365 kts 285°
2026-05-04 12:37 47.49060 18.21415 25540 ft 367 kts 285°
2026-05-04 12:38 47.49666 18.17761 25874 ft 368 kts 285°
2026-05-04 12:38 47.50273 18.14080 26197 ft 369 kts 286°
2026-05-04 12:38 47.50881 18.10385 26508 ft 371 kts 286°
2026-05-04 12:38 47.51492 18.06672 26813 ft 372 kts 286°
2026-05-04 12:39 47.52106 18.02937 27115 ft 374 kts 286°
2026-05-04 12:39 47.52714 17.99226 27406 ft 375 kts 287°
2026-05-04 12:39 47.53326 17.95485 27694 ft 376 kts 287°
2026-05-04 12:39 47.53941 17.91711 27974 ft 378 kts 287°
2026-05-04 12:40 47.54557 17.87919 28241 ft 379 kts 287°
2026-05-04 12:40 47.55173 17.84130 28508 ft 381 kts 287°
2026-05-04 12:40 47.55787 17.80340 28802 ft 381 kts 287°
2026-05-04 12:40 47.56423 17.76515 29105 ft 381 kts 288°
2026-05-04 12:41 47.57058 17.72743 29356 ft 382 kts 288°
2026-05-04 12:41 47.57705 17.68896 29583 ft 384 kts 288°
2026-05-04 12:41 47.58351 17.65049 29814 ft 385 kts 288°
2026-05-04 12:41 47.58994 17.61204 30037 ft 386 kts 289°
2026-05-04 12:42 47.59640 17.57337 30255 ft 388 kts 289°
2026-05-04 12:42 47.60280 17.53490 30475 ft 389 kts 289°
2026-05-04 12:42 47.60923 17.49610 30691 ft 390 kts 289°
2026-05-04 12:42 47.61572 17.45682 30925 ft 390 kts 289°
2026-05-04 12:43 47.62209 17.41792 31196 ft 390 kts 289°
2026-05-04 12:43 47.62769 17.37907 31467 ft 390 kts 288°
2026-05-04 12:43 47.63313 17.33962 31726 ft 390 kts 287°
2026-05-04 12:43 47.63853 17.30020 31986 ft 389 kts 288°
2026-05-04 12:44 47.64387 17.26129 32243 ft 389 kts 288°
2026-05-04 12:44 47.64925 17.22190 32503 ft 388 kts 288°
2026-05-04 12:44 47.65460 17.18265 32739 ft 388 kts 288°
2026-05-04 12:44 47.65993 17.14341 32965 ft 388 kts 288°
2026-05-04 12:45 47.66523 17.10423 33192 ft 388 kts 288°
2026-05-04 12:45 47.67078 17.06533 33426 ft 386 kts 290°
2026-05-04 12:45 47.67746 17.02698 33660 ft 383 kts 293°
2026-05-04 12:45 47.68526 16.98967 33912 ft 379 kts 296°
2026-05-04 12:46 47.69411 16.95358 34250 ft 373 kts 299°
2026-05-04 12:46 47.70380 16.91793 34639 ft 366 kts 300°
2026-05-04 12:46 47.71334 16.88327 35013 ft 361 kts 300°
2026-05-04 12:46 47.72271 16.84928 35361 ft 356 kts 301°
2026-05-04 12:47 47.73199 16.81558 35697 ft 351 kts 301°
2026-05-04 12:47 47.74120 16.78216 36012 ft 347 kts 301°
2026-05-04 12:47 47.75031 16.74915 36244 ft 345 kts 301°
2026-05-04 12:47 47.75938 16.71637 36365 ft 345 kts 301°
2026-05-04 12:48 47.76845 16.68352 36453 ft 346 kts 301°
2026-05-04 12:48 47.78664 16.61739 36634 ft 347 kts 301°
2026-05-04 12:49 47.80490 16.55073 36805 ft 349 kts 301°
2026-05-04 12:49 47.82312 16.48400 36967 ft 350 kts 301°
2026-05-04 12:50 47.84130 16.41720 37118 ft 351 kts 301°
2026-05-04 12:50 47.85951 16.35012 37256 ft 351 kts 301°
2026-05-04 12:51 47.87778 16.28255 37392 ft 353 kts 301°
2026-05-04 12:51 47.89614 16.21455 37528 ft 354 kts 301°
2026-05-04 12:52 47.91436 16.14681 37655 ft 355 kts 301°
2026-05-04 12:52 47.93270 16.07842 37773 ft 355 kts 301°
2026-05-04 12:53 47.95097 16.01011 37880 ft 356 kts 301°
2026-05-04 12:53 47.96928 15.94148 37972 ft 357 kts 300°
2026-05-04 12:54 47.98746 15.87311 37987 ft 357 kts 300°
2026-05-04 12:54 48.00578 15.80396 37988 ft 357 kts 300°
2026-05-04 12:55 48.02389 15.73543 37988 ft 358 kts 301°
2026-05-04 12:55 48.04208 15.66643 37988 ft 357 kts 300°
2026-05-04 12:56 48.06020 15.59748 37987 ft 357 kts 300°
2026-05-04 12:56 48.07836 15.52814 37987 ft 357 kts 300°
2026-05-04 12:57 48.09636 15.45924 37987 ft 357 kts 300°
2026-05-04 12:57 48.11440 15.38996 37990 ft 357 kts 300°
2026-05-04 12:58 48.13228 15.32106 37989 ft 358 kts 300°
2026-05-04 12:58 48.15023 15.25171 37985 ft 358 kts 300°
2026-05-04 12:59 48.16816 15.18225 37978 ft 358 kts 300°
2026-05-04 12:59 48.18612 15.11246 37968 ft 358 kts 300°
2026-05-04 13:00 48.20394 15.04316 37959 ft 360 kts 299°
2026-05-04 13:00 48.22192 14.97305 37955 ft 362 kts 298°
2026-05-04 13:01 48.23997 14.90231 37954 ft 364 kts 297°
2026-05-04 13:01 48.25789 14.83175 37954 ft 366 kts 297°
2026-05-04 13:02 48.27589 14.76046 37954 ft 366 kts 297°
2026-05-04 13:02 48.29397 14.68880 37955 ft 366 kts 297°
2026-05-04 13:03 48.31182 14.61785 37955 ft 366 kts 297°
2026-05-04 13:03 48.32981 14.54612 37954 ft 366 kts 297°
2026-05-04 13:04 48.34766 14.47476 37941 ft 367 kts 297°
2026-05-04 13:04 48.36550 14.40324 37932 ft 366 kts 297°
2026-05-04 13:05 48.38334 14.33144 37930 ft 367 kts 297°
2026-05-04 13:05 48.40118 14.25948 37928 ft 367 kts 297°
2026-05-04 13:06 48.41885 14.18792 37928 ft 367 kts 297°
2026-05-04 13:06 48.43657 14.11595 37928 ft 367 kts 297°
2026-05-04 13:07 48.45421 14.04410 37928 ft 367 kts 297°
2026-05-04 13:07 48.47185 13.97200 37928 ft 367 kts 297°
2026-05-04 13:08 48.48948 13.89969 37928 ft 367 kts 297°
2026-05-04 13:08 48.50694 13.82787 37928 ft 367 kts 297°
2026-05-04 13:09 48.52448 13.75549 37928 ft 368 kts 297°
2026-05-04 13:09 48.54187 13.68353 37928 ft 367 kts 297°
2026-05-04 13:10 48.55929 13.61118 37928 ft 368 kts 297°
2026-05-04 13:10 48.57681 13.53856 37927 ft 367 kts 298°
2026-05-04 13:11 48.59688 13.46870 37928 ft 363 kts 302°
2026-05-04 13:11 48.61907 13.40059 37928 ft 363 kts 302°
2026-05-04 13:12 48.64151 13.33187 37929 ft 363 kts 301°
2026-05-04 13:12 48.66375 13.26371 37928 ft 363 kts 302°
2026-05-04 13:13 48.68605 13.19527 37928 ft 363 kts 301°
2026-05-04 13:13 48.70826 13.12703 37928 ft 364 kts 301°
2026-05-04 13:14 48.73059 13.05817 37928 ft 364 kts 300°
2026-05-04 13:14 48.75272 12.98977 37928 ft 364 kts 300°
2026-05-04 13:15 48.77496 12.92074 37928 ft 365 kts 300°
2026-05-04 13:15 48.79710 12.85173 37932 ft 365 kts 300°
2026-05-04 13:16 48.81931 12.78239 37942 ft 365 kts 300°
2026-05-04 13:16 48.84139 12.71328 37954 ft 365 kts 300°
2026-05-04 13:17 48.86336 12.64435 37963 ft 365 kts 300°
2026-05-04 13:17 48.88537 12.57512 37967 ft 365 kts 299°
2026-05-04 13:18 48.90739 12.50565 37968 ft 365 kts 300°
2026-05-04 13:18 48.92925 12.43652 37968 ft 365 kts 300°
2026-05-04 13:19 48.95110 12.36717 37968 ft 365 kts 300°
2026-05-04 13:19 48.97306 12.29735 37970 ft 365 kts 299°
2026-05-04 13:20 48.99479 12.22813 37970 ft 364 kts 298°
2026-05-04 13:20 49.01647 12.15882 37970 ft 362 kts 298°
2026-05-04 13:21 49.03795 12.08998 37969 ft 360 kts 298°
2026-05-04 13:21 49.05945 12.02083 37969 ft 359 kts 297°
2026-05-04 13:22 49.08059 11.95265 37969 ft 358 kts 297°
2026-05-04 13:22 49.10181 11.88404 37970 ft 356 kts 297°
2026-05-04 13:23 49.12281 11.81594 37970 ft 355 kts 297°
2026-05-04 13:23 49.14376 11.74775 37969 ft 355 kts 297°
2026-05-04 13:24 49.16463 11.67966 37969 ft 355 kts 297°
2026-05-04 13:24 49.18541 11.61170 37969 ft 355 kts 297°
2026-05-04 13:25 49.21666 11.50914 37969 ft 355 kts 297°
2026-05-04 13:25 49.23743 11.44077 37970 ft 355 kts 297°
2026-05-04 13:26 49.25810 11.37254 37973 ft 355 kts 297°
2026-05-04 13:26 49.27874 11.30418 37976 ft 355 kts 296°
2026-05-04 13:27 49.29948 11.23536 37979 ft 355 kts 296°
2026-05-04 13:27 49.32008 11.16680 37980 ft 355 kts 296°
2026-05-04 13:28 49.34060 11.09835 37981 ft 355 kts 296°
2026-05-04 13:28 49.36115 11.02958 37981 ft 355 kts 296°
2026-05-04 13:29 49.38156 10.96116 37981 ft 355 kts 295°
2026-05-04 13:29 49.40321 10.89310 37981 ft 355 kts 296°
2026-05-04 13:30 49.42517 10.82546 37981 ft 355 kts 296°
2026-05-04 13:30 49.44703 10.75789 37981 ft 355 kts 295°
2026-05-04 13:31 49.46900 10.68982 37980 ft 355 kts 295°
2026-05-04 13:31 49.49074 10.62231 37978 ft 355 kts 295°
2026-05-04 13:32 49.51262 10.55421 37975 ft 355 kts 295°
2026-05-04 13:32 49.53443 10.48618 37972 ft 355 kts 295°
2026-05-04 13:33 49.55618 10.41816 37971 ft 355 kts 295°
2026-05-04 13:33 49.57783 10.35030 37971 ft 355 kts 295°
2026-05-04 13:34 49.59965 10.28162 37971 ft 355 kts 295°
2026-05-04 13:34 49.62123 10.21363 37971 ft 355 kts 295°
2026-05-04 13:35 49.65370 10.11094 37975 ft 355 kts 295°
2026-05-04 13:36 49.67522 10.04264 37979 ft 355 kts 295°
2026-05-04 13:36 49.69671 9.97426 37980 ft 355 kts 295°
2026-05-04 13:37 49.71820 9.90564 37981 ft 355 kts 295°
2026-05-04 13:37 49.73963 9.83706 37981 ft 355 kts 295°
2026-05-04 13:38 49.76091 9.76879 37980 ft 355 kts 295°
2026-05-04 13:38 49.78229 9.69995 37981 ft 355 kts 295°
2026-05-04 13:39 49.80367 9.63100 37981 ft 355 kts 295°
2026-05-04 13:39 49.82492 9.56217 37981 ft 355 kts 295°
2026-05-04 13:40 49.84612 9.49339 37980 ft 355 kts 295°
2026-05-04 13:40 49.86736 9.42431 37981 ft 355 kts 295°
2026-05-04 13:41 49.88848 9.35533 37980 ft 355 kts 295°
2026-05-04 13:41 49.90958 9.28628 37982 ft 355 kts 294°
2026-05-04 13:42 49.94121 9.18244 37981 ft 355 kts 294°
2026-05-04 13:42 49.96219 9.11335 37981 ft 356 kts 294°
2026-05-04 13:43 49.98324 9.04396 37981 ft 356 kts 294°
2026-05-04 13:43 50.00438 8.97397 37980 ft 358 kts 293°
2026-05-04 13:44 50.02548 8.90385 37980 ft 360 kts 292°
2026-05-04 13:44 50.04660 8.83334 37981 ft 361 kts 292°
2026-05-04 13:45 50.06544 8.76166 37980 ft 360 kts 288°
2026-05-04 13:45 50.08287 8.68831 37981 ft 360 kts 288°
2026-05-04 13:46 50.10015 8.61523 37980 ft 360 kts 288°
2026-05-04 13:46 50.11733 8.54229 37981 ft 360 kts 288°
2026-05-04 13:47 50.13454 8.46895 37981 ft 360 kts 288°
2026-05-04 13:47 50.15160 8.39603 37981 ft 360 kts 288°
2026-05-04 13:48 50.16869 8.32264 37982 ft 360 kts 288°
2026-05-04 13:48 50.18581 8.24892 37980 ft 360 kts 288°
2026-05-04 13:49 50.20279 8.17553 37979 ft 360 kts 288°
2026-05-04 13:49 50.21976 8.10199 37979 ft 360 kts 288°
2026-05-04 13:50 50.23665 8.02851 37979 ft 360 kts 288°
2026-05-04 13:50 50.25443 7.95547 37979 ft 361 kts 290°
2026-05-04 13:51 50.27358 7.88293 37979 ft 361 kts 290°
2026-05-04 13:51 50.29265 7.81041 37982 ft 361 kts 290°
2026-05-04 13:52 50.32124 7.70101 37989 ft 361 kts 290°
2026-05-04 13:53 50.34003 7.62875 37992 ft 361 kts 290°
2026-05-04 13:53 50.35897 7.55569 37995 ft 361 kts 290°
2026-05-04 13:54 50.38726 7.44607 38000 ft 361 kts 290°
2026-05-04 13:55 50.41530 7.33688 38008 ft 361 kts 289°
2026-05-04 13:55 50.44337 7.22702 38002 ft 361 kts 289°
2026-05-04 13:56 50.46194 7.15413 37996 ft 361 kts 289°
2026-05-04 13:57 50.48993 7.04385 37987 ft 364 kts 288°
2026-05-04 13:58 50.52730 6.89553 37975 ft 367 kts 288°
2026-05-04 13:58 50.55528 6.78377 37973 ft 367 kts 288°
2026-05-04 13:59 50.57392 6.70902 37975 ft 367 kts 288°
2026-05-04 14:00 50.60189 6.59644 37980 ft 367 kts 288°
2026-05-04 14:00 50.62965 6.48414 37981 ft 367 kts 288°
2026-05-04 14:01 50.64805 6.40937 37981 ft 367 kts 288°
2026-05-04 14:02 50.67565 6.29674 37982 ft 367 kts 287°
2026-05-04 14:02 50.69393 6.22186 37981 ft 367 kts 287°
2026-05-04 14:03 50.71227 6.14650 37981 ft 367 kts 287°
2026-05-04 14:03 50.73049 6.07134 37981 ft 367 kts 287°
2026-05-04 14:04 50.75768 5.95869 37981 ft 367 kts 287°
2026-05-04 14:04 50.77575 5.88347 37981 ft 367 kts 287°
2026-05-04 14:05 50.80280 5.77045 37981 ft 367 kts 287°
2026-05-04 14:06 50.82080 5.69493 37981 ft 367 kts 287°
2026-05-04 14:06 50.83866 5.61971 37981 ft 367 kts 287°
2026-05-04 14:07 50.85656 5.54409 37981 ft 367 kts 287°
2026-05-04 14:07 50.87445 5.46819 37980 ft 367 kts 287°
2026-05-04 14:08 50.89217 5.39282 37981 ft 366 kts 287°
2026-05-04 14:08 50.90984 5.31742 37983 ft 364 kts 286°
2026-05-04 14:09 50.93599 5.20534 37978 ft 360 kts 286°
2026-05-04 14:10 50.96181 5.09403 37973 ft 357 kts 285°
2026-05-04 14:10 50.97886 5.02022 37970 ft 355 kts 285°
2026-05-04 14:11 50.99578 4.94683 37969 ft 351 kts 284°
2026-05-04 14:11 51.02064 4.83842 37972 ft 345 kts 283°
2026-05-04 14:12 51.03685 4.76741 37976 ft 341 kts 283°
2026-05-04 14:13 51.06084 4.66158 37980 ft 339 kts 283°
2026-05-04 14:13 51.07679 4.59095 37980 ft 339 kts 283°
2026-05-04 14:14 51.09262 4.52069 37980 ft 339 kts 283°
2026-05-04 14:14 51.11640 4.41476 37981 ft 339 kts 283°
2026-05-04 14:15 51.14802 4.27307 37982 ft 338 kts 282°
2026-05-04 14:16 51.17154 4.16711 37976 ft 338 kts 282°
2026-05-04 14:17 51.19491 4.06128 37967 ft 338 kts 282°
2026-05-04 14:18 51.21827 3.95497 37958 ft 338 kts 282°
2026-05-04 14:19 51.24922 3.81329 37955 ft 339 kts 282°
2026-05-04 14:19 51.26471 3.74201 37956 ft 339 kts 282°
2026-05-04 14:20 51.28004 3.67117 37961 ft 338 kts 282°
2026-05-04 14:20 51.29533 3.60037 37968 ft 338 kts 282°
2026-05-04 14:21 51.31835 3.49335 37977 ft 338 kts 282°
2026-05-04 14:21 51.33355 3.42227 37979 ft 338 kts 282°
2026-05-04 14:22 51.34885 3.35141 37981 ft 339 kts 283°
2026-05-04 14:22 51.36553 3.28087 37982 ft 339 kts 283°
2026-05-04 14:23 51.39055 3.17521 37981 ft 339 kts 283°
2026-05-04 14:24 51.40726 3.10436 37981 ft 339 kts 283°
2026-05-04 14:24 51.42396 3.03346 37980 ft 340 kts 283°
2026-05-04 14:25 51.44068 2.96222 37980 ft 341 kts 282°
2026-05-04 14:25 51.46565 2.85539 37981 ft 344 kts 282°
2026-05-04 14:26 51.48239 2.78336 37981 ft 344 kts 282°
2026-05-04 14:26 51.49896 2.71193 37938 ft 345 kts 282°
2026-05-04 14:27 51.50734 2.67577 37684 ft 343 kts 282°
2026-05-04 14:27 51.51553 2.64043 37436 ft 341 kts 282°
2026-05-04 14:27 51.52373 2.60495 37186 ft 338 kts 282°
2026-05-04 14:27 51.53189 2.56954 36934 ft 335 kts 281°
2026-05-04 14:28 51.53986 2.53487 36686 ft 333 kts 281°
2026-05-04 14:28 51.54780 2.50024 36439 ft 333 kts 281°
2026-05-04 14:28 51.55583 2.46513 36187 ft 333 kts 281°
2026-05-04 14:28 51.56373 2.43051 35939 ft 333 kts 281°
2026-05-04 14:29 51.57959 2.36088 35442 ft 334 kts 281°
2026-05-04 14:29 51.59552 2.29096 34945 ft 334 kts 281°
2026-05-04 14:30 51.60354 2.25576 34577 ft 335 kts 281°
2026-05-04 14:30 51.61152 2.22062 34027 ft 336 kts 281°
2026-05-04 14:30 51.62743 2.15030 32620 ft 340 kts 281°
2026-05-04 14:31 51.63549 2.11453 31859 ft 343 kts 281°
2026-05-04 14:31 51.65176 2.04201 30299 ft 350 kts 282°
2026-05-04 14:32 51.66833 1.96793 28700 ft 356 kts 282°
2026-05-04 14:32 51.67674 1.93038 28124 ft 353 kts 282°
2026-05-04 14:32 51.68492 1.89388 27609 ft 349 kts 282°
2026-05-04 14:32 51.69310 1.85729 27098 ft 345 kts 282°
2026-05-04 14:33 51.70117 1.82107 26598 ft 341 kts 282°
2026-05-04 14:33 51.70910 1.78537 26108 ft 337 kts 282°
2026-05-04 14:33 51.71692 1.75007 25630 ft 334 kts 282°
2026-05-04 14:33 51.72460 1.71533 25176 ft 329 kts 282°
2026-05-04 14:34 51.73217 1.68107 24993 ft 324 kts 282°
2026-05-04 14:34 51.73856 1.64637 24992 ft 319 kts 276°
2026-05-04 14:34 51.74226 1.61161 24992 ft 314 kts 271°
2026-05-04 14:34 51.74352 1.57674 24844 ft 309 kts 266°
2026-05-04 14:35 51.74247 1.54209 24064 ft 314 kts 262°
2026-05-04 14:35 51.74035 1.50680 23607 ft 325 kts 262°
2026-05-04 14:35 51.73806 1.47021 23444 ft 330 kts 262°
2026-05-04 14:35 51.73573 1.43325 23192 ft 331 kts 262°
2026-05-04 14:36 51.73338 1.39631 22887 ft 331 kts 262°
2026-05-04 14:36 51.73103 1.35983 22459 ft 330 kts 262°
2026-05-04 14:36 51.72865 1.32328 21911 ft 329 kts 261°
2026-05-04 14:36 51.72624 1.28642 21290 ft 329 kts 261°
2026-05-04 14:37 51.72385 1.25002 20654 ft 330 kts 261°
2026-05-04 14:37 51.72141 1.21313 20002 ft 332 kts 261°
2026-05-04 14:37 51.71896 1.17630 19357 ft 333 kts 262°
2026-05-04 14:37 51.71649 1.13930 18832 ft 331 kts 262°
2026-05-04 14:38 51.71405 1.10283 18409 ft 325 kts 262°
2026-05-04 14:38 51.71164 1.06708 17996 ft 320 kts 262°
2026-05-04 14:38 51.70925 1.03190 17593 ft 315 kts 262°
2026-05-04 14:38 51.70687 0.99715 17200 ft 310 kts 262°
2026-05-04 14:39 51.70451 0.96268 16812 ft 305 kts 262°
2026-05-04 14:39 51.70222 0.92944 16445 ft 300 kts 262°
2026-05-04 14:39 51.69992 0.89617 16079 ft 295 kts 262°
2026-05-04 14:40 51.69545 0.83184 15394 ft 286 kts 262°
2026-05-04 14:40 51.69323 0.80010 15062 ft 281 kts 262°
2026-05-04 14:40 51.69104 0.76899 14743 ft 277 kts 262°
2026-05-04 14:40 51.68890 0.73867 14435 ft 273 kts 262°
2026-05-04 14:41 51.68676 0.70848 14129 ft 268 kts 262°
2026-05-04 14:41 51.68465 0.67878 13790 ft 266 kts 262°
2026-05-04 14:41 51.68043 0.61987 12997 ft 266 kts 263°
2026-05-04 14:42 51.67616 0.56069 12211 ft 266 kts 263°
2026-05-04 14:42 51.67403 0.53143 11827 ft 265 kts 263°
2026-05-04 14:42 51.67189 0.50207 11455 ft 265 kts 263°
2026-05-04 14:43 51.66973 0.47255 11090 ft 264 kts 263°
2026-05-04 14:43 51.66756 0.44317 10727 ft 263 kts 264°
2026-05-04 14:43 51.66537 0.41368 10360 ft 262 kts 264°
2026-05-04 14:43 51.66325 0.38489 10002 ft 261 kts 264°
2026-05-04 14:44 51.66112 0.35581 9644 ft 261 kts 265°
2026-05-04 14:44 51.65897 0.32696 9287 ft 260 kts 264°
2026-05-04 14:44 51.65682 0.29803 8932 ft 260 kts 264°
2026-05-04 14:44 51.65466 0.26919 8570 ft 259 kts 265°
2026-05-04 14:45 51.65249 0.24021 8212 ft 259 kts 265°
2026-05-04 14:45 51.65036 0.21190 7931 ft 256 kts 265°
2026-05-04 14:45 51.64822 0.18385 7576 ft 245 kts 266°
2026-05-04 14:45 51.64646 0.15498 7133 ft 234 kts 271°
2026-05-04 14:46 51.64652 0.12942 6955 ft 229 kts 275°
2026-05-04 14:46 51.64732 0.10374 6697 ft 227 kts 276°
2026-05-04 14:46 51.64817 0.07844 6445 ft 229 kts 277°
2026-05-04 14:46 51.64907 0.05271 6194 ft 231 kts 277°
2026-05-04 14:47 51.64996 0.02655 5941 ft 234 kts 277°
2026-05-04 14:47 51.65084 0.00023 5687 ft 237 kts 277°
2026-05-04 14:47 51.65123 -0.02609 5449 ft 237 kts 266°
2026-05-04 14:47 51.64429 -0.05023 5262 ft 245 kts 227°
2026-05-04 14:48 51.62952 -0.06458 5102 ft 250 kts 202°
2026-05-04 14:48 51.61304 -0.07398 4868 ft 250 kts 200°
2026-05-04 14:48 51.59673 -0.08305 4607 ft 250 kts 200°
2026-05-04 14:48 51.58044 -0.09266 4342 ft 250 kts 202°
2026-05-04 14:49 51.56408 -0.10288 4083 ft 249 kts 202°
2026-05-04 14:49 51.54807 -0.11317 3812 ft 248 kts 202°
2026-05-04 14:49 51.53215 -0.12346 3555 ft 247 kts 202°
2026-05-04 14:49 51.51650 -0.13364 3490 ft 236 kts 203°
2026-05-04 14:50 51.50173 -0.14376 3482 ft 226 kts 211°
2026-05-04 14:50 51.49005 -0.15965 3313 ft 215 kts 238°
2026-05-04 14:50 51.48277 -0.17988 3002 ft 207 kts 248°
2026-05-04 14:50 51.47754 -0.20030 2907 ft 186 kts 253°
2026-05-04 14:51 51.47364 -0.21922 2737 ft 170 kts 257°
2026-05-04 14:51 51.47049 -0.23655 2547 ft 158 kts 258°
2026-05-04 14:51 51.46789 -0.25276 2487 ft 142 kts 264°
2026-05-04 14:51 51.46635 -0.26823 2364 ft 142 kts 265°
2026-05-04 14:52 51.46515 -0.28375 2019 ft 140 kts 270°
2026-05-04 14:52 51.46493 -0.29914 1781 ft 136 kts 276°
2026-05-04 14:52 51.46532 -0.31423 1588 ft 137 kts 277°
2026-05-04 14:52 51.46549 -0.32946 1377 ft 135 kts 274°
2026-05-04 14:53 51.46536 -0.34464 1194 ft 135 kts 273°
2026-05-04 14:53 51.46522 -0.35978 1007 ft 135 kts 273°
2026-05-04 14:53 51.46514 -0.37474 835 ft 133 kts 273°
2026-05-04 14:53 51.46508 -0.38970 656 ft 136 kts 273°
2026-05-04 14:54 51.46505 -0.40487 479 ft 135 kts 273°
2026-05-04 14:54 51.46496 -0.42002 285 ft 136 kts 272°
2026-05-04 14:54 51.46492 -0.43512 136 ft 135 kts 272°
2026-05-04 14:54 51.46489 -0.44968 93 ft 121 kts 271°
2026-05-04 14:55 51.46487 -0.46066 92 ft 74 kts 270°
2026-05-04 14:55 51.46512 -0.46612 92 ft 30 kts 290°
2026-05-04 14:55 51.46579 -0.46834 92 ft 11 kts 317°
2026-05-04 14:55 51.46625 -0.46859 92 ft 0 kts 357°
2026-05-04 14:56 51.46656 -0.46950 92 ft 14 kts 275°
2026-05-04 14:56 51.46656 -0.47110 92 ft 14 kts 270°
2026-05-04 14:56 51.46656 -0.47279 92 ft 15 kts 271°
2026-05-04 14:57 51.46655 -0.47454 92 ft 16 kts 269°
2026-05-04 14:57 51.46654 -0.47638 92 ft 16 kts 270°
2026-05-04 14:57 51.46654 -0.47827 92 ft 17 kts 271°
2026-05-04 14:57 51.46652 -0.48021 92 ft 17 kts 268°
2026-05-04 14:58 51.46650 -0.48218 92 ft 17 kts 271°
2026-05-04 14:58 51.46652 -0.48415 92 ft 16 kts 278°
2026-05-04 14:58 51.46746 -0.48471 92 ft 16 kts
2026-05-04 14:58 51.46858 -0.48471 92 ft 16 kts 359°
2026-05-04 14:59 51.46972 -0.48471 92 ft 16 kts
2026-05-04 14:59 51.47066 -0.48473 92 ft 13 kts 359°
2026-05-04 14:59 51.47251 -0.48471 92 ft 10 kts
2026-05-04 15:00 51.47272 -0.48533 92 ft 7 kts 271°
2026-05-04 15:00 51.47271 -0.48579 92 ft 0 kts 269°
2026-05-04 15:00 51.47271 -0.48581 92 ft 0 kts 269°